Погода в Дукстасе

Поиск расширенной информации на нашем сайте:

Полезная информация:

Новости сайта



02.01.2020
Опубликован Долгосрочный прогноз погоды по городам России и ближнего зарубежья на январь 2020 года.
Карты: Прогноз на январь и февраль 2020 года, Сравнение прогнозируемой аномалии приземной температуры воздуха на январь 2020 года по разным моделям.




Погода в Дукстасе - сегодня

Время (UTC), дата Ветер
(°,м/с) 
Видим.   Явления Облачность Т
(°С)
Тd
(°С)
f(%) Тe
(°С)
Pmin
(гПа)
dP
(гПа)
Po
(мм)
O2
(г/м3)
Тmin Tmax R s Состояние
почвы
21 22.10.20 250 (З) 5-10{14}  20000 м    9/9 600 м 
+12.9 +9.3 79 +12  1009.4  1.8  743  284           
00 23.10.20 240 (ЮЗ) 4-6{11}  20000 м    9/9 1000 м 
+12.6 +9.3 80 +12  1009.6  0.2  743  284           
03 23.10.20 200 (Ю) 3-6{07}  20000 м    9/9 200 м 
+11.5 +9.7 89 +12  1008.1  -1.6  742  285           
06 23.10.20 210 (ЮЗ) 4-7{07}  13000 м  слаб. дождь  10/10 200 м 
+11.5 +10 90 +12  1006.6  -1.4  740  284  +11    0.0     
09 23.10.20 240 (ЮЗ) 5-9{09}  18000 м    9/9 300 м 
+12.7 +10.7 88 +14  1006.3  -0.2  740  283      0.3     
12 23.10.20 250 (З) 6-13{13}  20000 м    8/8 1000 м 
+14 +7.9 67 +13  1006.2  0.1  740  282      0.3     
15 23.10.20 250 (З) 5-10{14}  20000 м    9/9 1500 м 
+12.7 +6.8 67 +12  1007.2  0.9  741  284           
18 23.10.20 260 (З) 3-6{11}  20000 м    6/6 1000 м 
+11 +7.2 77 +11  1008.5  1.2  742  286    +14.8  0.3     
21 23.10.20 230 (ЮЗ) 4-6{07}  20000 м    9/9 300 м 
+10.5 +7.9 84 +10  1009.3  0.8  742  287           
00 24.10.20 220 (ЮЗ) 2-4{06}  20000 м    9/9 1000 м 
+9 +8.1 94 +9  1009.1  -0.3  742  288           
03 24.10.20 230 (ЮЗ) 2-4{05}  20000 м    9/9 1000 м 
+8.7 +7.6 93 +9  1009.4  0.2  742  289           
06 24.10.20 210 (ЮЗ) 1-3{04}  7000 м  слаб. дождь  9/9 1500 м 
+7.7 +7.1 96 +9  1009.5  -0.1  742  290  +7.7       
09 24.10.20 220 (ЮЗ) 1-3{05}  15000 м    9/9 100 м 
+8.7 +8.1 96 +10  1009.1  -0.3  742  288         
12 24.10.20 250 (З) 3-5{07}  18000 м  слаб. ливневой дождь  9/9 1500 м 
+10.2 +8.5 89 +10  1009.2  0.1  742  287      0.1     
15 24.10.20 230 (ЮЗ) 2-3{06}  20000 м    9/9 1500 м 
+9.6 +8 90 +10  1009.7  0.5  743  288           
18 24.10.20 230 (ЮЗ) 3-5{05}  19000 м    9/9 1500 м 
+9.2 +8.3 94 +9  1010.1  0.4  743  288    +11.2  0.1     
21 24.10.20 230 (ЮЗ) 3-5{07}  8000 м  дождь  9/9 200 м 
+9.8 +8.8 93 +9  1010  0.1  743  287      0.1     
00 25.10.20 250 (З) 3-6{09}  12000 м  в посл. час дождь  9/9 1500 м 
+9.5 +8.6 94 +9  1011.2  1.2  744  288      0.9     
03 25.10.20 230 (ЮЗ) 1-3{07}  18000 м    5/0 
+8.9 +7.9 93 +10  1012.7  1.4  745  289      0.8     
06 25.10.20 240 (ЮЗ) 3-5{05}  11000 м    9/9 600 м 
+9 +8.4 96 +8  1014.4  1.7  746  290  +7.9    0.9     
09 25.10.20 220 (ЮЗ) 3-5{06}  19000 м    10/10 600 м 
+10.2 +8.4 89 +10  1016  1.6  747  289           
12 25.10.20 190 (Ю) 2-3{05}  20000 м    9/9 1000 м 
+11.5 +7.4 76 +12  1016  0.1  747  288           
15 25.10.20 170 (Ю) 1-3{04}  20000 м    ясно 
+9.7 +7 83 +11  1016.3  0.2  748  290           
18 25.10.20 тихо () -1{03}  9000 м  дымка  ясно 
+6.4 +5.4 93 +6  1017  0.4  748  294    +12.2       
21 25.10.20 тихо () -2{02}  0900 м  туман  3/0 
+4.4 +4.1 98 +4  1017.4  0.3  748  296           
Время (UTC), дата Ветер
(°,м/с) 
Видим.   Явления Облачность Т
(°С)
Тd
(°С)
f(%) Тe
(°С)
Pmin
(гПа)
dP
(гПа)
Po
(мм)
O2
(г/м3)
Тmin Tmax R s Состояние
почвы

Для получения пояснительной информации подведите курсор к названию столбца.

ПОГОДА в Дукстасе - архив

Всё, что Вы хотите узнать о погоде в Дукстасе - удобно и подробно!

Выберите нужную дату (начиная с 1 января 2019* года) и нажмите кнопку "Найти".
Будут отображены архивные сводки погоды по пункту Дукстас, начиная с указанной даты.


Отображать данные в формате CSV (для использования в таблицах Excel)


Внимание! Наш архив погоды предназначен исключительно для личного некоммерческого использования в познавательных целях. Если Вам необходимы официальные справки о состоянии погоды (для производственных, юридических, коммерческих и т.п. целей), обращайтесь в органы Росгидромета.

*Примечание: данная дата относится к архиву по метеостанциям СССР (Россия, СНГ, Балтия).
Архив по метеостанциям Зарубежной Европы и Азии (кроме Китая) хранится 10 дней, по другим регионам земного шара (Китай, Африка, Америка, Австралия, Океания) - 1 день.

Дукстас - район местоположения метеостанции


Название, широта, долгота, высота метеостанции:
Дукстас 55.5°ш. 26.3°д. 168 м над ур. моря [Литва]

Дополнительная информация

В oтличие oт бoльшинства пoгoдных сайтoв мы публикуем пoдрoбную метеoинфoрмацию в детальнoм прoфессиoнальнoм фoрмате.

Характеристики температуры и влажнoсти вoздуха измеряются на высoте 2 м в тени вдали oт зданий и деревьев.
Скoрoсть ветра измеряется на высoте 10 м (на урoвне рoста челoвека скoрoсть ветра ниже в 1.5-2 раза). Если метеoстанция нахoдится в гoрoде или в лесу, тo скoрoсть ветра занижена на 2-4 м/с пo сравнению с oткрытым местoм. Скoрoсть ветра над акватoриями крупных рек и oзёр, а также на вершинах хoлмoв на 2-5 м/с выше, чем в oбычных услoвиях.
Атмoсфернoе давление в разных тoчках местнoсти мoжет значительнo oтличаться oт давления на метеoстанции, в зависимoсти oт услoвий рельефа (при пoдъёме на 10 м давление пoнижается примернo на 1 мм рт.ст.).